Regional Weather Roundup
Issued by NWS Jackson, KY

Home | Current Version | Previous Version | Text Only | Print | Product List | Glossary On
Versions: 1 2 3 4 5 6 7 8 9 10 11 12 13 14 15 16 17 18 19 20 21 22 23 24 25 26 27 28 29 30 31 32 33 34 35 36 37 38 39 40 41 42 43 44 45 46 47 48 49 50
000
ASUS43 KJKL 301319
RWRJKL

EAST KENTUCKY HOURLY WEATHER ROUNDUP
NATIONAL WEATHER SERVICE JACKSON KY
900 AM EDT WED JUL 30 2014

NOTE: "FAIR" INDICATES FEW OR NO CLOUDS BELOW 12,000 FEET WITH
NO SIGNIFICANT WEATHER AND/OR OBSTRUCTIONS TO VISIBILITY.

* THESE REPORTS ARE NOT UNDER NWS QUALITY CONTROL AND MAY NOT
  REPORT WEATHER SUCH AS PRECIPITATION AND FOG.

KYZ079-080-083-085-087-088-110-112-115-119-120-301400
...EASTERN KENTUCKY...

CITY           SKY/WX    TMP DP  RH WIND       PRES   REMARKS
JACKSON        MOSUNNY   57  55  93 CALM      30.14R
LONDON         SUNNY     59  55  87 VRB3      30.14R
SOMERSET*      CLOUDY    57  57 100 CALM      30.14R FOG
MONTICELLO*    SUNNY     61  57  86 CALM      30.15R
MIDDLESBORO*   CLOUDY    55  53  94 CALM      30.16S
HARLAN APT*    CLOUDY    54  54 100 MISG      30.16S VSB 1
HAZARD APT*    FOG       57  57 100 CALM      30.14S VSB 1/2
BLACK MTN*       N/A     55  48  76 N2          N/A
PIKEVILLE APT* FOG       54  54 100 CALM      30.14R VSB 0
BIG SANDY*     PTSUNNY   57  56  97 SW5       30.14R FOG
MOREHEAD APT*  CLOUDY    63  55  77 SW6       30.13S
ASHLAND*       SUNNY     63  54  72 CALM      30.09
$$

KYZ035-036-041-042-044-050-067-078-099-301400
...CENTRAL KENTUCKY...

CITY           SKY/WX    TMP DP  RH WIND       PRES   REMARKS
MT STERLING*   CLOUDY    61  55  82 W5        30.13R
FLEMING/MASON* SUNNY     65  58  79 SW7       30.12S
DANVILLE*      SUNNY     64  59  82 SW3       30.14R
RICHMOND*      SUNNY     63  55  77 SW5       30.11S
LEXINGTON      MOSUNNY   63  56  78 SW6       30.11S
FRANKFORT      SUNNY     63  59  87 SW6       30.10R
$$

KYZ091>093-OHZ055-061-077-WVZ005-015-034-035-042-301400
...SOUTHERN OHIO/WEST VIRGINIA...

CITY           SKY/WX    TMP DP  RH WIND       PRES   REMARKS
COVINGTON      MOSUNNY   65  60  84 SW6       30.08R
COLUMBUS       MOSUNNY   63  55  75 S3        30.05S
DAYTON         MOSUNNY   61  58  90 SW8       30.07R
WILMINGTON     SUNNY     64  58  80 SW9       30.07S
HUNTINGTON     SUNNY     58  57  97 SW6       30.11R
CHARLESTON     PTSUNNY   59  59 100 CALM      30.11R
PINEVILLE*     CLOUDY    58  58 100 MISG      30.20R FOG
BECKLEY        SUNNY     58  54  86 SW5       30.16R
BLUEFIELD      SUNNY     58  53  84 W6        30.17R
$$

VAZ002-007-008-TNZ017-027-036-066-071-301400
...SOUTHWEST VIRGINIA/EAST TENNESSEE...

CITY           SKY/WX    TMP DP  RH WIND       PRES   REMARKS
WISE*          SUNNY     57  55  94 CALM      30.17S
JONESVILLE*    MOSUNNY   54  54 100 CALM      30.18R FOG
ABINGDON*      SUNNY     59  54  83 E5        30.16S
BRISTOL        SUNNY     59  53  80 CALM      30.15S
KNOXVILLE      MOSUNNY   61  56  83 E5        30.12R
OAK RIDGE      SUNNY     61  57  87 E5        30.14S
CROSSVILLE     SUNNY     63  55  75 NE5       30.15S
NASHVILLE      PTSUNNY   63  58  83 CALM      30.13R
$$

...KEY TO REMARKS...
VSB - VISIBILITY IN MILES
WCI - WIND CHILL INDEX
HX  - HEAT INDEX

$$


USA.gov is the U.S. government's official web portal to all federal, state and local government web resources and services.